Location: Newark
(24.0228°N, 104.6544°W)
Time: 17:43:39
(UTC+00:00)

Hubble Space Telescope - Visible Passes

Search period start: 22 September 2020 00:00
Search period end: 02 October 2020 00:00
Orbit: 536 x 540 km, 28.5° (Epoch: 21 September)

Date Brightness Start Highest point End Pass type
(mag) Time Alt. Az. Time Alt. Az. Time Alt. Az.
22 Sep 2.2 11:30:46 20° SSW 11:32:42 30° SSE 11:36:19 10° E visible
23 Sep 1.7 11:20:56 32° S 11:21:56 38° SSE 11:25:47 10° E visible
24 Sep 1.2 11:11:03 49° SSE 11:11:12 50° SSE 11:15:10 10° E visible
25 Sep 1.3 11:01:06 54° ESE 11:01:06 54° ESE 11:04:32 10° ENE visible
26 Sep 2.0 10:51:07 40° E 10:51:07 40° E 10:53:51 10° ENE visible
26 Sep 1.4 12:27:04 10° W 12:31:03 47° N 12:35:01 10° ENE visible
27 Sep 2.7 10:41:06 28° ENE 10:41:06 28° ENE 10:43:09 10° ENE visible
27 Sep 1.4 12:16:26 10° WNW 12:20:24 44° N 12:24:21 10° ENE visible
28 Sep 3.3 10:31:03 20° ENE 10:31:03 20° ENE 10:32:26 10° ENE visible
28 Sep 1.5 12:06:23 13° WNW 12:09:45 43° N 12:13:41 10° ENE visible
29 Sep 3.7 10:20:59 15° ENE 10:20:59 15° ENE 10:21:44 10° ENE visible
29 Sep 1.5 11:56:19 18° WNW 11:59:06 43° N 12:03:03 10° ENE visible
30 Sep 4.1 10:10:56 10° ENE 10:10:56 10° ENE 10:11:01 10° ENE visible
30 Sep 1.5 11:46:16 23° WNW 11:48:28 44° N 11:52:25 10° ENE visible
01 Oct 1.4 11:36:13 30° NW 11:37:49 47° N 11:41:47 10° E visible
